Regional Weather Roundup
Issued by NWS Wakefield, VA

Home | Current Version | Previous Version | Graphics & Text | Print | Product List | Glossary On
Versions: 1 2 3 4 5 6 7 8 9 10 11 12 13 14 15 16 17 18 19 20 21 22 23 24 25 26 27 28
000
ASUS41 KAKQ 251015
RWRAKQ

REGIONAL WEATHER ROUNDUP
NATIONAL WEATHER SERVICE WAKEFIELD VA
500 AM EST SUN FEB 25 2018

Note: "fair" indicates few or no clouds below 12,000 feet with no
significant weather and/or obstructions to visibility. * = Denotes
station may not report precipitation (e.g., rain,snow,etc.),
thunder or fog.

VAZ042-051-052>054-056-251100-
NORTHERN VIRGINIA

CITY           SKY/WX    TMP DP  RH WIND       PRES   REMARKS
WASH NATIONAL  CLOUDY    48  47  96 E7        30.01F FOG
DULLES         CLOUDY    46  46 100 E5        29.98F FOG
FORT BELVOIR   CLOUDY    48  46  93 E3        29.99F FOG
QUANTICO       CLOUDY    48  48 100 E6        30.01F FOG
FREDERICKSBRG* FOG       48  48 100 NE3       29.99F VSB 3/4
STAFFORD*      FOG       48  48 100 CALM      30.03F VSB 3/4
WARRENTON      FOG       49  46  91 CALM      29.98F VSB 1
CULPEPER*      FOG       49  47  95 CALM      30.00F VSB 1
MANASSAS*      CLOUDY    47  47 100 SE6       29.99F FOG
LEESBURG*      CLOUDY    45  45 100 E3        30.00F FOG
WINCHESTER     CLOUDY    45  43  93 SE6       29.97F FOG
FRONT ROYAL*   CLOUDY    45  45 100 CALM      29.94F
LURAY*         CLOUDY    45  45 100 CALM      29.96S FOG
$$

VAZ048-049-060>072-079>083-251100-
CENTRAL AND SOUTH CENTRAL VIRGINIA

CITY           SKY/WX    TMP DP  RH WIND       PRES   REMARKS
RICHMOND       FOG       54  54 100 E3        29.98F VSB 1/4
CHESTERFIELD*  FOG       55  55 100 CALM      29.99F VSB 1/4
PETERSBURG*    MOCLDY    48  47  94 CALM      29.98F FOG
HANOVER        FOG       52  52 100 CALM      30.00F VSB 1/4
TAPPAHANNOCK*  FOG       50  50 100 CALM      30.00F VSB 1/4
QUINTON*       CLOUDY    52  52 100 CALM      29.98F FOG
CHARLOTTSVILLE FOG       49  48  97 CALM      29.99S VSB 3/4
GORDONSVILLE*  FOG       47  47 100 CALM      29.99R VSB 3/4
ORANGE*        FOG       46  46 100 CALM      29.99R VSB 3/4
LOUISA*        FOG       49  48  99 NW3       30.03F VSB 1/2
BUMPASS*       CLOUDY    49  48  95 CALM      29.99F VSB 1/2
FARMVILLE*     FOG      N/A N/A N/A CALM      29.97F VSB 1/2
CREWE*         CLOUDY    54  54 100 CALM      29.98S VSB 1/4
FORT PICKETT*  PTSUNNY   54  54 100 CALM      29.98F VSB 1/2
CHASE CITY*    FAIR      63  61  91 CALM      29.98F
CLARKSVILLE*   FAIR      63  59  88 S9        29.98S
SOUTH HILL*    FAIR      61  60  95 S10       30.05F
LAWRENCEVILLE* FAIR      62  59  90 S7        29.99F
EMPORIA*       FAIR      63  59  88 S8        30.02F
$$

VAZ088>098-251100-
SOUTHEAST VIRGINIA

CITY           SKY/WX    TMP DP  RH WIND       PRES   REMARKS
NORFOLK        FAIR      63  61  93 SW14      30.02S
VIRGINIA BEACH FAIR      64  59  83 SW15G23   30.02S
NORFOLK NAVAL  FAIR      63  59  87 S7        30.03S
WEST POINT*    CLOUDY    51  51  97 SE3       30.01F
SALUDA*        CLOUDY    49  49 100 CALM      30.01S VSB 1/2
NEWPORT NEWS   FAIR      49  48  97 CALM      30.01F
LANGLEY AFB    FAIR      51  51 100 S5        30.02S
FORT EUSTIS    FAIR      52  50  95 SE3       29.99S
WILLIAMSBURG*  FAIR      52  48  87 S5        30.01F
HR EXEC AP*    FAIR      63  60  90 S8        30.03S
FRANKLIN*      FAIR      64  60  87 S7        30.03S
US460-WAKEFLD  FAIR      61  60  97 S5        30.00F
$$

VAZ020-022-025-037-045-251100-
WEST CENTRAL AND SOUTHWEST VIRGINIA

CITY           SKY/WX    TMP DP  RH WIND       PRES   REMARKS
STAUNTON*      CLOUDY    45  45  99 CALM      29.97F FOG
WAYNESBORO*    CLOUDY    46  46  99 N3        29.95S VSB 1
HOT SPRINGS VA RAIN      53  53 100 S14G24    29.96F VSB 1/4
LYNCHBURG      FOG       49  49 100 NE3       29.97F VSB 1/2
DANVILLE       FAIR      64  59  83 S9        29.97S
SOUTH BOSTON*  FAIR      65  57  74 S9        29.97F
MARTINSVILLE   FAIR      63  57  80 S3        29.99F
ROANOKE        CLOUDY    57  53  86 SE14      29.94F
BLACKSBURG     CLOUDY    64  57  79 SW8       29.97F
DUBLIN*        CLOUDY    64  57  77 S13       29.95S
MARION*        CLOUDY    66  52  60 CALM      29.96S
HILLSVILLE*    CLOUDY    60  56  88 S8        29.97F
RICHLANDS*     LGT RAIN  62  54  73 W9G20     29.94R
WISE*          HVY RAIN  55  55 100 NW12G18   29.98R
ABINGDON*      CLOUDY    64  57  77 NW3       29.93R
$$

MDZ021>025-VAZ099-100-251100-
SOUTHERN MARYLAND AND THE DELMARVA PENINSULA

CITY           SKY/WX    TMP DP  RH WIND       PRES   REMARKS
PATUXENT RIVER FOG       47  47 100 CALM      30.00F VSB 1/4
BAY BRIDGE APT FOG       46  46 100 CALM      30.02F VSB 3/4
LEONARDTOWN    CLOUDY    46  46 100 CALM      30.01F VSB 1/4
DOVER          LGT RAIN  45  45 100 E12       30.02F FOG
GEORGETOWN     FOG       47  46  97 E7        30.02F VSB 1/4
EASTON         FOG       47  46  95 E3        30.05F VSB 1/2
CAMBRIDGE      FOG       48  48 100 E3        30.00F VSB 1/2
SALISBURY      FOG       49  49 100 E5        30.01F VSB 1/4
OCEAN CITY     FOG       47  47 100 E3        30.02F VSB 1/4
WALLOPS ISLAND FOG       49  49 100 E6        30.02F VSB 1/4
ACCOMACK*      CLOUDY    50  49  99 S5        30.01F FOG
$$

NCZ012>017-030>032-251100-
NORTH CENTRAL AND EASTERN NORTH CAROLINA

CITY           SKY/WX    TMP DP  RH WIND       PRES   REMARKS
ROANOKE RAPIDS FAIR      63  61  94 S10       30.03S
RALEIGH        MOCLDY    64  59  83 SW13      30.03F
ELIZABETH CITY FAIR      64  63  96 S12       30.06S
AHOSKIE*       FAIR      63  61  94 S6        30.04S
EDENTON*       FAIR      65  63  90 SW10      30.07R
CURRITUCK*     FAIR      61  59  92 SW6       30.06S
KILL DEVIL HLS FAIR     N/A N/A N/A SW7       30.07S
MANTEO         FAIR      63  61  94 SW12      30.08S
CAPE HATTERAS  FAIR      65  64  97 SW12      30.10F
TARBORO*       NOT AVBL
GOLDSBORO      FAIR      65  62  91 SW8G17    30.05F
WASHINGTON     FAIR      64  62  94 SW8       30.08S
GREENVILLE     FAIR      64  63  94 SW8       30.08F
NEW BERN       FAIR      63  62  97 SW7       30.10F
WILMINGTON     FAIR      66  63  90 S8        30.10S
$$

VAZ048-251100-
ELSEWHERE

CITY           SKY/WX    TMP DP  RH WIND       PRES   REMARKS
HARRISBURG PA  LGT RAIN  44  42  93 NW3       30.04R FOG
BALTIMORE      LGT RAIN  45  45 100 E6        30.01F VSB 1
ANNAPOLIS      CLOUDY    48  48 100 CALM      30.01F FOG
ANDREWS AFB    FOG       46  46  99 NE5       30.05  VSB 3/4
PHILADELPHIA   LGT RAIN  44  42  93 E13       30.07S
HENDERSON NC   FAIR      61  55  81 S12       30.01R
GREENSBORO     FAIR      63  58  83 SW15      29.99S
ROCKY MOUNT    MOCLDY    65  61  87 S12       30.05F
$$

VAZ100-251100-
MARINE

STATION/POSITION TIME  TEMP    WIND        PRES    WAVE   SWELL
                       AIR SEA DIR/SP/G            HT/PER HT/PER
                 (UTC) (F)     (DEG/KT/KT) (MB)    (FT/S) (FT/S)
BRANDYWINE LGT   0936   45     100/ 19/ 22 1016.7F
CAPE MAY NJ      0948   45 44   90/ 12/ 19 1016.2F
LEWES DE         0936   44 45  100/ 14/ 19 1016.3F
15NM E FENWICK I 0950   47 43   80/ 10/ 10 1016.6F   2/ 4   2/ 8
OCEAN-CITY-INLET 0948   45 43   30/  3/  4 1016.9F
WACHAPREAGUE VA  0948   48 51  170/  3/  3 1016.4F
THOMAS POINT MD  1000   45 43     CALM       N/A
GOOSES REEF MD   1000   43 42   40/  4/  4 1018.3
COVE POINT MD    0948   47     240/  2/  3 1016.9S
SOLOMONS ISLAND  0948   45 44   CALM  /  1 1015.7F
BISHOPS HEAD MD  0948   48 49  130/  4/  5 1016.2F
PINEY POINT MD   0948           80/  2/  3   N/A
POTOMAC MD       1000   45 44  300/  4/  4 1017.0    0
CAMBRIDGE MD     0948   47 48              1016.7F
LEWISETTA VA     0948   47 50  120/  5/  5 1015.8F
RAPPAHANNOCK LGT 0948          170/  8/  9 1016.8F
YORK RVR RNG VA  0948   46     160/  7/  7 1016.9F
YORKTOWN VA      0948   49 49  120/  2/  3 1015.9F
DOMINION TERM VA 0948   57     150/  4/  6 1016.6F
KIPTOPEKE VA     0936      47  160/  7/  8   N/A
CAPE HENRY VA    0948   64     200/  9/ 13   N/A
WILLOUBY STN VA  0948   62     200/ 12/ 12 1016.4F
S CRANEY ISL VA  0948   61     200/  9/ 11 1016.4F
CAPE HENRY BUOY  1000      45                N/A     2/10
CAPE CHARLES BUO 0951      45                N/A     2/10   2/11
64NM E OF VA BCH 0950   54 50  210/ 14/ 14 1018.3S   4/10   2/10
DUCK PIER NC     0948   65 46  210/ 14/ 18 1017.5F
44100 DUCK FRF   0845      49                N/A     3/ 8
44056 DUCK FRF   1000      47                N/A     2/ 9
OREGON INLET NC  0936   59 62  210/ 12/ 14 1018.7F
HATTERAS NC      0936   64 62  230/  9/ 13 1019.3F
DIAMOND SHLS NC  0950   72 74  240/ 17/ 21 1019.6F   4/ 9   3/ 9
CAPE LOOKOUT NC  1000          210/ 11/ 13 1020.2S
$$




USA.gov is the U.S. government's official web portal to all federal, state and local government web resources and services.